Year,Month,Day,Hour,Minute,Value (Times are PST for temperature in C)
2013,12,08,00,00,-8.60
2013,12,08,00,01,-8.60
2013,12,08,00,02,-8.70
2013,12,08,00,03,-8.70
2013,12,08,00,04,-8.70
2013,12,08,00,05,-8.70
2013,12,08,00,06,-8.70
2013,12,08,00,07,-8.70
2013,12,08,00,08,-8.70
2013,12,08,00,09,-8.70
2013,12,08,00,10,-8.70
2013,12,08,00,11,-8.70
2013,12,08,00,12,-8.70
2013,12,08,00,13,-8.80
2013,12,08,00,14,-8.80
2013,12,08,00,15,-8.80
2013,12,08,00,16,-8.80
2013,12,08,00,17,-8.80
2013,12,08,00,18,-8.80
2013,12,08,00,19,-8.80
2013,12,08,00,20,-8.80
2013,12,08,00,21,-8.80
2013,12,08,00,22,-8.80
2013,12,08,00,23,-8.80
2013,12,08,00,24,-8.90
2013,12,08,00,25,-8.90
2013,12,08,00,26,-8.80
2013,12,08,00,27,-8.80
2013,12,08,00,28,-8.80
2013,12,08,00,29,-8.80
2013,12,08,00,30,-8.80
2013,12,08,00,31,-8.80
2013,12,08,00,32,-8.80
2013,12,08,00,33,-8.80
2013,12,08,00,34,-8.80
2013,12,08,00,35,-8.80
2013,12,08,00,36,-8.80
2013,12,08,00,37,-8.80
2013,12,08,00,38,-8.70
2013,12,08,00,39,-8.70
2013,12,08,00,40,-8.70
2013,12,08,00,41,-8.70
2013,12,08,00,42,-8.70
2013,12,08,00,43,-8.70
2013,12,08,00,44,-8.70
2013,12,08,00,45,-8.70
2013,12,08,00,46,-8.70
2013,12,08,00,47,-8.70
2013,12,08,00,48,-8.70
2013,12,08,00,49,-8.70
2013,12,08,00,50,-8.70
2013,12,08,00,51,-8.70
2013,12,08,00,52,-8.70
2013,12,08,00,53,-8.70
2013,12,08,00,54,-8.70
2013,12,08,00,55,-8.70
2013,12,08,00,56,-8.70
2013,12,08,00,57,-8.70
2013,12,08,00,58,-8.70
2013,12,08,00,59,-8.70
2013,12,08,01,00,-8.70
2013,12,08,01,01,-8.70
2013,12,08,01,02,-8.70
2013,12,08,01,03,-8.70
2013,12,08,01,04,-8.70
2013,12,08,01,05,-8.70
2013,12,08,01,06,-8.70
2013,12,08,01,07,-8.70
2013,12,08,01,08,-8.70
2013,12,08,01,09,-8.70
2013,12,08,01,10,-8.80
2013,12,08,01,11,-8.80
2013,12,08,01,12,-8.80
2013,12,08,01,13,-8.80
2013,12,08,01,14,-8.80
2013,12,08,01,15,-8.80
2013,12,08,01,16,-8.80
2013,12,08,01,17,-8.80
2013,12,08,01,18,-8.80
2013,12,08,01,19,-8.80
2013,12,08,01,20,-8.80
2013,12,08,01,21,-8.80
2013,12,08,01,22,-8.80
2013,12,08,01,23,-8.80
2013,12,08,01,24,-8.80
2013,12,08,01,25,-8.80
2013,12,08,01,26,-8.80
2013,12,08,01,27,-8.80
2013,12,08,01,28,-8.90
2013,12,08,01,29,-8.90
2013,12,08,01,30,-8.90
2013,12,08,01,31,-8.90
2013,12,08,01,32,-8.90
2013,12,08,01,33,-8.90
2013,12,08,01,34,-8.90
2013,12,08,01,35,-8.90
2013,12,08,01,36,-8.90
2013,12,08,01,37,-8.90
2013,12,08,01,38,-8.90
2013,12,08,01,39,-8.90
2013,12,08,01,40,-9.00
2013,12,08,01,41,-9.00
2013,12,08,01,42,-9.00
2013,12,08,01,43,-9.00
2013,12,08,01,44,-9.00
2013,12,08,01,45,-9.00
2013,12,08,01,46,-9.00
2013,12,08,01,47,-9.00
2013,12,08,01,48,-9.10
2013,12,08,01,49,-9.10
2013,12,08,01,50,-9.10
2013,12,08,01,51,-9.10
2013,12,08,01,52,-9.10
2013,12,08,01,53,-9.10
2013,12,08,01,54,-9.10
2013,12,08,01,55,-9.10
2013,12,08,01,56,-9.10
2013,12,08,01,57,-9.10
2013,12,08,01,58,-9.10
2013,12,08,01,59,-9.10
2013,12,08,02,00,-9.00
2013,12,08,02,01,-9.00
2013,12,08,02,02,-9.00
2013,12,08,02,03,-9.00
2013,12,08,02,04,-9.00
2013,12,08,02,05,-9.00
2013,12,08,02,06,-9.00
2013,12,08,02,07,-8.90
2013,12,08,02,08,-8.90
2013,12,08,02,09,-8.90
2013,12,08,02,10,-8.90
2013,12,08,02,11,-8.90
2013,12,08,02,12,-8.90
2013,12,08,02,13,-8.90
2013,12,08,02,14,-8.80
2013,12,08,02,15,-8.80
2013,12,08,02,16,-8.80
2013,12,08,02,17,-8.80
2013,12,08,02,18,-8.80
2013,12,08,02,19,-8.80
2013,12,08,02,20,-8.80
2013,12,08,02,21,-8.80
2013,12,08,02,22,-8.80
2013,12,08,02,23,-8.80
2013,12,08,02,24,-8.80
2013,12,08,02,25,-8.90
2013,12,08,02,26,-8.90
2013,12,08,02,27,-8.90
2013,12,08,02,28,-8.90
2013,12,08,02,29,-8.90
2013,12,08,02,30,-8.90
2013,12,08,02,31,-8.90
2013,12,08,02,32,-8.90
2013,12,08,02,33,-8.90
2013,12,08,02,34,-8.90
2013,12,08,02,35,-9.00
2013,12,08,02,36,-9.00
2013,12,08,02,37,-9.00
2013,12,08,02,38,-9.00
2013,12,08,02,39,-9.00
2013,12,08,02,40,-9.00
2013,12,08,02,41,-9.00
2013,12,08,02,42,-9.00
2013,12,08,02,43,-9.10
2013,12,08,02,44,-9.10
2013,12,08,02,45,-9.10
2013,12,08,02,46,-9.10
2013,12,08,02,47,-9.10
2013,12,08,02,48,-9.10
2013,12,08,02,49,-9.10
2013,12,08,02,50,-9.10
2013,12,08,02,51,-9.10
2013,12,08,02,52,-9.10
2013,12,08,02,53,-9.00
2013,12,08,02,54,-9.00
2013,12,08,02,55,-9.00
2013,12,08,02,56,-9.00
2013,12,08,02,57,-9.00
2013,12,08,02,58,-8.90
2013,12,08,02,59,-8.90
2013,12,08,03,00,-8.90
2013,12,08,03,01,-8.90
2013,12,08,03,02,-8.90
2013,12,08,03,03,-8.90
2013,12,08,03,04,-8.90
2013,12,08,03,05,-8.90
2013,12,08,03,06,-8.90
2013,12,08,03,07,-8.90
2013,12,08,03,08,-8.90
2013,12,08,03,09,-8.90
2013,12,08,03,10,-8.90
2013,12,08,03,11,-8.90
2013,12,08,03,12,-8.90
2013,12,08,03,13,-8.90
2013,12,08,03,14,-8.90
2013,12,08,03,15,-8.90
2013,12,08,03,16,-8.90
2013,12,08,03,17,-8.90
2013,12,08,03,18,-8.90
2013,12,08,03,19,-8.90
2013,12,08,03,20,-8.90
2013,12,08,03,21,-8.90
2013,12,08,03,22,-8.90
2013,12,08,03,23,-8.80
2013,12,08,03,24,-8.80
2013,12,08,03,25,-8.80
2013,12,08,03,26,-8.80
2013,12,08,03,27,-8.80
2013,12,08,03,28,-8.80
2013,12,08,03,29,-8.80
2013,12,08,03,30,-8.80
2013,12,08,03,31,-8.80
2013,12,08,03,32,-8.80
2013,12,08,03,33,-8.80
2013,12,08,03,34,-8.80
2013,12,08,03,35,-8.80
2013,12,08,03,36,-8.80
2013,12,08,03,37,-8.80
2013,12,08,03,38,-8.80
2013,12,08,03,39,-8.80
2013,12,08,03,40,-8.80
2013,12,08,03,41,-8.80
2013,12,08,03,42,-8.80
2013,12,08,03,43,-8.80
2013,12,08,03,44,-8.80
2013,12,08,03,45,-8.80
2013,12,08,03,46,-8.80
2013,12,08,03,47,-8.80
2013,12,08,03,48,-8.80
2013,12,08,03,49,-8.80
2013,12,08,03,50,-8.80
2013,12,08,03,51,-8.80
2013,12,08,03,52,-8.80
2013,12,08,03,53,-8.80
2013,12,08,03,54,-8.80
2013,12,08,03,55,-8.80
2013,12,08,03,56,-8.80
2013,12,08,03,57,-8.80
2013,12,08,03,58,-8.80
2013,12,08,03,59,-8.80
2013,12,08,04,00,-8.80
2013,12,08,04,01,-8.80
2013,12,08,04,02,-8.80
2013,12,08,04,03,-8.90
2013,12,08,04,04,-8.90
2013,12,08,04,05,-8.90
2013,12,08,04,06,-8.90
2013,12,08,04,07,-8.90
2013,12,08,04,08,-8.90
2013,12,08,04,09,-8.90
2013,12,08,04,10,-9.00
2013,12,08,04,11,-9.00
2013,12,08,04,12,-9.00
2013,12,08,04,13,-9.00
2013,12,08,04,14,-9.00
2013,12,08,04,15,-9.00
2013,12,08,04,16,-9.00
2013,12,08,04,17,-9.00
2013,12,08,04,18,-9.00
2013,12,08,04,19,-9.00
2013,12,08,04,20,-9.00
2013,12,08,04,21,-9.00
2013,12,08,04,22,-9.00
2013,12,08,04,23,-9.00
2013,12,08,04,24,-8.90
2013,12,08,04,25,-8.90
2013,12,08,04,26,-8.90
2013,12,08,04,27,-8.90
2013,12,08,04,28,-8.90
2013,12,08,04,29,-8.90
2013,12,08,04,30,-8.90
2013,12,08,04,31,-8.90
2013,12,08,04,32,-8.90
2013,12,08,04,33,-8.90
2013,12,08,04,34,-8.90
2013,12,08,04,35,-8.90
2013,12,08,04,36,-8.90
2013,12,08,04,37,-8.90
2013,12,08,04,38,-8.90
2013,12,08,04,39,-8.90
2013,12,08,04,40,-8.90
2013,12,08,04,41,-8.90
2013,12,08,04,42,-8.90
2013,12,08,04,43,-8.90
2013,12,08,04,44,-8.90
2013,12,08,04,45,-8.90
2013,12,08,04,46,-8.90
2013,12,08,04,47,-8.90
2013,12,08,04,48,-8.90
2013,12,08,04,49,-8.90
2013,12,08,04,50,-8.90
2013,12,08,04,51,-8.90
2013,12,08,04,52,-8.90
2013,12,08,04,53,-8.90
2013,12,08,04,54,-8.90
2013,12,08,04,55,-8.90
2013,12,08,04,56,-8.80
2013,12,08,04,57,-8.80
2013,12,08,04,58,-8.80
2013,12,08,04,59,-8.80
2013,12,08,05,00,-8.80
2013,12,08,05,01,-8.80
2013,12,08,05,02,-8.80
2013,12,08,05,03,-8.70
2013,12,08,05,04,-8.70
2013,12,08,05,05,-8.70
2013,12,08,05,06,-8.70
2013,12,08,05,07,-8.70
2013,12,08,05,08,-8.70
2013,12,08,05,09,-8.60
2013,12,08,05,10,-8.60
2013,12,08,05,11,-8.60
2013,12,08,05,12,-8.60
2013,12,08,05,13,-8.60
2013,12,08,05,14,-8.60
2013,12,08,05,15,-8.60
2013,12,08,05,16,-8.60
2013,12,08,05,17,-8.60
2013,12,08,05,18,-8.60
2013,12,08,05,19,-8.60
2013,12,08,05,20,-8.60
2013,12,08,05,21,-8.60
2013,12,08,05,22,-8.60
2013,12,08,05,23,-8.60
2013,12,08,05,24,-8.60
2013,12,08,05,25,-8.60
2013,12,08,05,26,-8.60
2013,12,08,05,27,-8.60
2013,12,08,05,28,-8.60
2013,12,08,05,29,-8.60
2013,12,08,05,30,-8.60
2013,12,08,05,31,-8.60
2013,12,08,05,32,-8.60
2013,12,08,05,33,-8.60
2013,12,08,05,34,-8.60
2013,12,08,05,35,-8.60
2013,12,08,05,36,-8.60
2013,12,08,05,37,-8.60
2013,12,08,05,38,-8.60
2013,12,08,05,39,-8.60
2013,12,08,05,40,-8.60
2013,12,08,05,41,-8.60
2013,12,08,05,42,-8.60
2013,12,08,05,43,-8.70
2013,12,08,05,44,-8.70
2013,12,08,05,45,-8.70
2013,12,08,05,46,-8.70
2013,12,08,05,47,-8.70
2013,12,08,05,48,-8.70
2013,12,08,05,49,-8.70
2013,12,08,05,50,-8.70
2013,12,08,05,51,-8.70
2013,12,08,05,52,-8.70
2013,12,08,05,53,-8.70
2013,12,08,05,54,-8.70
2013,12,08,05,55,-8.70
2013,12,08,05,56,-8.70
2013,12,08,05,57,-8.70
2013,12,08,05,58,-8.70
2013,12,08,05,59,-8.70
2013,12,08,06,00,-8.70
2013,12,08,06,01,-8.70
2013,12,08,06,02,-8.70
2013,12,08,06,03,-8.70
2013,12,08,06,04,-8.70
2013,12,08,06,05,-8.70
2013,12,08,06,06,-8.70
2013,12,08,06,07,-8.70
2013,12,08,06,08,-8.70
2013,12,08,06,09,-8.70
2013,12,08,06,10,-8.70
2013,12,08,06,11,-8.70
2013,12,08,06,12,-8.70
2013,12,08,06,13,-8.80
2013,12,08,06,14,-8.80
2013,12,08,06,15,-8.80
2013,12,08,06,16,-8.80
2013,12,08,06,17,-8.80
2013,12,08,06,18,-8.80
2013,12,08,06,19,-8.80
2013,12,08,06,20,-8.80
2013,12,08,06,21,-8.80
2013,12,08,06,22,-8.80
2013,12,08,06,23,-8.80
2013,12,08,06,24,-8.80
2013,12,08,06,25,-8.80
2013,12,08,06,26,-8.80
2013,12,08,06,27,-8.90
2013,12,08,06,28,-8.90
2013,12,08,06,29,-8.90
2013,12,08,06,30,-8.90
2013,12,08,06,31,-8.90
2013,12,08,06,32,-8.90
2013,12,08,06,33,-8.90
2013,12,08,06,34,-9.00
2013,12,08,06,35,-9.00
2013,12,08,06,36,-9.00
2013,12,08,06,37,-9.00
2013,12,08,06,38,-9.00
2013,12,08,06,39,-9.10
2013,12,08,06,40,-9.10
2013,12,08,06,41,-9.10
2013,12,08,06,42,-9.10
2013,12,08,06,43,-9.10
2013,12,08,06,44,-9.10
2013,12,08,06,45,-9.10
2013,12,08,06,46,-9.10
2013,12,08,06,47,-9.20
2013,12,08,06,48,-9.20
2013,12,08,06,49,-9.20
2013,12,08,06,50,-9.20
2013,12,08,06,51,-9.20
2013,12,08,06,52,-9.20
2013,12,08,06,53,-9.20
2013,12,08,06,54,-9.20
2013,12,08,06,55,-9.20
2013,12,08,06,56,-9.20
2013,12,08,06,57,-9.20
2013,12,08,06,58,-9.20
2013,12,08,06,59,-9.20
2013,12,08,07,00,-9.20
2013,12,08,07,01,-9.20
2013,12,08,07,02,-9.20
2013,12,08,07,03,-9.20
2013,12,08,07,04,-9.20
2013,12,08,07,05,-9.20
2013,12,08,07,06,-9.20
2013,12,08,07,07,-9.20
2013,12,08,07,08,-9.20
2013,12,08,07,09,-9.20
2013,12,08,07,10,-9.20
2013,12,08,07,11,-9.10
2013,12,08,07,12,-9.10
2013,12,08,07,13,-9.10
2013,12,08,07,14,-9.10
2013,12,08,07,15,-9.10
2013,12,08,07,16,-9.00
2013,12,08,07,17,-9.10
2013,12,08,07,18,-9.00
2013,12,08,07,19,-9.00
2013,12,08,07,20,-9.00
2013,12,08,07,21,-9.00
2013,12,08,07,22,-9.00
2013,12,08,07,23,-9.10
2013,12,08,07,24,-9.10
2013,12,08,07,25,-9.10
2013,12,08,07,26,-9.10
2013,12,08,07,27,-9.10
2013,12,08,07,28,-9.10
2013,12,08,07,29,-9.10
2013,12,08,07,30,-9.10
2013,12,08,07,31,-9.10
2013,12,08,07,32,-9.10
2013,12,08,07,33,-9.10
2013,12,08,07,34,-9.10
2013,12,08,07,35,-9.10
2013,12,08,07,36,-9.10
2013,12,08,07,37,-9.10
2013,12,08,07,38,-9.10
2013,12,08,07,39,-9.10
2013,12,08,07,40,-9.10
2013,12,08,07,41,-9.10
2013,12,08,07,42,-9.10
2013,12,08,07,43,-9.00
2013,12,08,07,44,-9.00
2013,12,08,07,45,-9.00
2013,12,08,07,46,-9.00
2013,12,08,07,47,-9.00
2013,12,08,07,48,-9.00
2013,12,08,07,49,-8.90
2013,12,08,07,50,-8.90
2013,12,08,07,51,-8.90
2013,12,08,07,52,-8.90
2013,12,08,07,53,-8.90
2013,12,08,07,54,-8.90
2013,12,08,07,55,-8.90
2013,12,08,07,56,-8.90
2013,12,08,07,57,-8.90
2013,12,08,07,58,-8.90
2013,12,08,07,59,-8.90
2013,12,08,08,00,-8.90
2013,12,08,08,01,-8.90
2013,12,08,08,02,-8.90
2013,12,08,08,03,-8.90
2013,12,08,08,04,-8.90
2013,12,08,08,05,-8.90
2013,12,08,08,06,-8.90
2013,12,08,08,07,-8.90
2013,12,08,08,08,-8.90
2013,12,08,08,09,-9.00
2013,12,08,08,10,-9.00
2013,12,08,08,11,-9.00
2013,12,08,08,12,-9.00
2013,12,08,08,13,-9.00
2013,12,08,08,14,-9.00
2013,12,08,08,15,-9.00
2013,12,08,08,16,-9.00
2013,12,08,08,17,-9.00
2013,12,08,08,18,-9.00
2013,12,08,08,19,-9.00
2013,12,08,08,20,-9.00
2013,12,08,08,21,-9.00
2013,12,08,08,22,-9.00
2013,12,08,08,23,-9.00
2013,12,08,08,24,-9.00
2013,12,08,08,25,-9.00
2013,12,08,08,26,-9.10
2013,12,08,08,27,-9.10
2013,12,08,08,28,-9.10
2013,12,08,08,29,-9.10
2013,12,08,08,30,-9.10
2013,12,08,08,31,-9.10
2013,12,08,08,32,-9.10
2013,12,08,08,33,-9.00
2013,12,08,08,34,-9.00
2013,12,08,08,35,-9.00
2013,12,08,08,36,-9.00
2013,12,08,08,37,-9.00
2013,12,08,08,38,-9.00
2013,12,08,08,39,-9.00
2013,12,08,08,40,-9.00
2013,12,08,08,41,-9.00
2013,12,08,08,42,-9.00
2013,12,08,08,43,-8.90
2013,12,08,08,44,-8.90
2013,12,08,08,45,-8.90
2013,12,08,08,46,-8.90
2013,12,08,08,47,-8.80
2013,12,08,08,48,-8.80
2013,12,08,08,49,-8.80
2013,12,08,08,50,-8.80
2013,12,08,08,51,-8.80
2013,12,08,08,52,-8.80
2013,12,08,08,53,-8.80
2013,12,08,08,54,-8.80
2013,12,08,08,55,-8.80
2013,12,08,08,56,-8.80
2013,12,08,08,57,-8.80
2013,12,08,08,58,-8.80
2013,12,08,08,59,-8.80
2013,12,08,09,00,-8.70
2013,12,08,09,01,-8.70
2013,12,08,09,02,-8.70
2013,12,08,09,03,-8.70
2013,12,08,09,04,-8.70
2013,12,08,09,05,-8.70
2013,12,08,09,06,-8.60
2013,12,08,09,07,-8.60
2013,12,08,09,08,-8.60
2013,12,08,09,09,-8.60
2013,12,08,09,10,-8.60
2013,12,08,09,11,-8.60
2013,12,08,09,12,-8.50
2013,12,08,09,13,-8.50
2013,12,08,09,14,-8.50
2013,12,08,09,15,-8.50
2013,12,08,09,16,-8.40
2013,12,08,09,17,-8.40
2013,12,08,09,18,-8.40
2013,12,08,09,19,-8.40
2013,12,08,09,20,-8.40
2013,12,08,09,21,-8.30
2013,12,08,09,22,-8.30
2013,12,08,09,23,-8.30
2013,12,08,09,24,-8.30
2013,12,08,09,25,-8.20
2013,12,08,09,26,-8.20
2013,12,08,09,27,-8.20
2013,12,08,09,28,-8.20
2013,12,08,09,29,-8.10
2013,12,08,09,30,-8.10
2013,12,08,09,31,-8.00
2013,12,08,09,32,-8.00
2013,12,08,09,33,-7.90
2013,12,08,09,34,-7.90
2013,12,08,09,35,-7.80
2013,12,08,09,36,-7.80
2013,12,08,09,37,-7.80
2013,12,08,09,38,-7.80
2013,12,08,09,39,-7.80
2013,12,08,09,40,-7.80
2013,12,08,09,41,-7.80
2013,12,08,09,42,-7.80
2013,12,08,09,43,-7.70
2013,12,08,09,44,-7.50
2013,12,08,09,45,-7.40
2013,12,08,09,46,-7.30
2013,12,08,09,47,-7.30
2013,12,08,09,48,-7.20
2013,12,08,09,49,-7.20
2013,12,08,09,50,-7.10
2013,12,08,09,51,-7.10
2013,12,08,09,52,-7.00
2013,12,08,09,53,-6.90
2013,12,08,09,54,-6.80
2013,12,08,09,55,-6.70
2013,12,08,09,56,-6.70
2013,12,08,09,57,-6.60
2013,12,08,09,58,-6.50
2013,12,08,09,59,-6.40
2013,12,08,10,00,-6.30
2013,12,08,10,01,-6.30
2013,12,08,10,02,-6.30
2013,12,08,10,03,-6.30
2013,12,08,10,04,-6.20
2013,12,08,10,05,-5.90
2013,12,08,10,06,-5.80
2013,12,08,10,07,-5.80
2013,12,08,10,08,-5.70
2013,12,08,10,09,-5.70
2013,12,08,10,10,-5.60
2013,12,08,10,11,-5.50
2013,12,08,10,12,-5.50
2013,12,08,10,13,-5.40
2013,12,08,10,14,-5.40
2013,12,08,10,15,-5.30
2013,12,08,10,16,-5.30
2013,12,08,10,17,-5.30
2013,12,08,10,18,-5.30
2013,12,08,10,19,-5.20
2013,12,08,10,20,-5.20
2013,12,08,10,21,-5.10
2013,12,08,10,22,-5.10
2013,12,08,10,23,-4.90
2013,12,08,10,24,-4.90
2013,12,08,10,25,-4.80
2013,12,08,10,26,-4.70
2013,12,08,10,27,-4.60
2013,12,08,10,28,-4.60
2013,12,08,10,29,-4.50
2013,12,08,10,30,-4.40
2013,12,08,10,31,-4.30
2013,12,08,10,32,-4.30
2013,12,08,10,33,-4.30
2013,12,08,10,34,-4.30
2013,12,08,10,35,-4.20
2013,12,08,10,36,-4.20
2013,12,08,10,37,-4.20
2013,12,08,10,38,-4.20
2013,12,08,10,39,-4.20
2013,12,08,10,40,-4.10
2013,12,08,10,41,-4.10
2013,12,08,10,42,-4.00
2013,12,08,10,43,-3.90
2013,12,08,10,44,-3.80
2013,12,08,10,45,-3.80
2013,12,08,10,46,-3.70
2013,12,08,10,47,-3.70
2013,12,08,10,48,-3.70
2013,12,08,10,49,-3.60
2013,12,08,10,50,-3.60
2013,12,08,10,51,-3.60
2013,12,08,10,52,-3.60
2013,12,08,10,53,-3.60
2013,12,08,10,54,-3.60
2013,12,08,10,55,-3.60
2013,12,08,10,56,-3.70
2013,12,08,10,57,-3.70
2013,12,08,10,58,-3.70
2013,12,08,10,59,-3.70
2013,12,08,11,00,-3.80
2013,12,08,11,01,-3.80
2013,12,08,11,02,-3.80
2013,12,08,11,03,-3.70
2013,12,08,11,04,-3.70
2013,12,08,11,05,-3.70
2013,12,08,11,06,-3.70
2013,12,08,11,07,-3.70
2013,12,08,11,08,-3.60
2013,12,08,11,09,-3.60
2013,12,08,11,10,-3.60
2013,12,08,11,11,-3.60
2013,12,08,11,12,-3.50
2013,12,08,11,13,-3.50
2013,12,08,11,14,-3.50
2013,12,08,11,15,-3.40
2013,12,08,11,16,-3.40
2013,12,08,11,17,-3.30
2013,12,08,11,18,-3.30
2013,12,08,11,19,-3.20
2013,12,08,11,20,-3.20
2013,12,08,11,21,-3.10
2013,12,08,11,22,-3.00
2013,12,08,11,23,-2.90
2013,12,08,11,24,-2.80
2013,12,08,11,25,-2.80
2013,12,08,11,26,-2.80
2013,12,08,11,27,-2.70
2013,12,08,11,28,-2.70
2013,12,08,11,29,-2.60
2013,12,08,11,30,-2.60
2013,12,08,11,31,-2.60
2013,12,08,11,32,-2.50
2013,12,08,11,33,-2.60
2013,12,08,11,34,-2.60
2013,12,08,11,35,-2.60
2013,12,08,11,36,-2.70
2013,12,08,11,37,-2.70
2013,12,08,11,38,-2.70
2013,12,08,11,39,-2.60
2013,12,08,11,40,-2.60
2013,12,08,11,41,-2.60
2013,12,08,11,42,-2.50
2013,12,08,11,43,-2.50
2013,12,08,11,44,-2.50
2013,12,08,11,45,-2.50
2013,12,08,11,46,-2.60
2013,12,08,11,47,-2.60
2013,12,08,11,48,-2.60
2013,12,08,11,49,-2.60
2013,12,08,11,50,-2.70
2013,12,08,11,51,-2.60
2013,12,08,11,52,-2.60
2013,12,08,11,53,-2.60
2013,12,08,11,54,-2.60
2013,12,08,11,55,-2.60
2013,12,08,11,56,-2.60
2013,12,08,11,57,-2.50
2013,12,08,11,58,-2.50
2013,12,08,11,59,-2.50
2013,12,08,12,00,-2.50
2013,12,08,12,01,-2.50
2013,12,08,12,02,-2.40
2013,12,08,12,03,-2.40
2013,12,08,12,04,-2.30
2013,12,08,12,05,-2.30
2013,12,08,12,06,-2.20
2013,12,08,12,07,-2.20
2013,12,08,12,08,-2.10
2013,12,08,12,09,-2.00
2013,12,08,12,10,-2.00
2013,12,08,12,11,-1.90
2013,12,08,12,12,-1.90
2013,12,08,12,13,-1.90
2013,12,08,12,14,-1.90
2013,12,08,12,15,-1.90
2013,12,08,12,16,-1.80
2013,12,08,12,17,-1.80
2013,12,08,12,18,-1.80
2013,12,08,12,19,-1.80
2013,12,08,12,20,-1.80
2013,12,08,12,21,-1.70
2013,12,08,12,22,-1.80
2013,12,08,12,23,-1.80
2013,12,08,12,24,-1.80
2013,12,08,12,25,-1.80
2013,12,08,12,26,-1.80
2013,12,08,12,27,-1.70
2013,12,08,12,28,-1.70
2013,12,08,12,29,-1.60
2013,12,08,12,30,-1.60
2013,12,08,12,31,-1.50
2013,12,08,12,32,-1.40
2013,12,08,12,33,-1.40
2013,12,08,12,34,-1.30
2013,12,08,12,35,-1.20
2013,12,08,12,36,-1.20
2013,12,08,12,37,-1.10
2013,12,08,12,38,-1.10
2013,12,08,12,39,-1.10
2013,12,08,12,40,-1.00
2013,12,08,12,41,-1.00
2013,12,08,12,42,-0.90
2013,12,08,12,43,-0.90
2013,12,08,12,44,-0.80
2013,12,08,12,45,-0.80
2013,12,08,12,46,-0.80
2013,12,08,12,47,-0.90
2013,12,08,12,48,-0.90
2013,12,08,12,49,-0.90
2013,12,08,12,50,-0.90
2013,12,08,12,51,-0.90
2013,12,08,12,52,-0.90
2013,12,08,12,53,-0.90
2013,12,08,12,54,-0.90
2013,12,08,12,55,-0.80
2013,12,08,12,56,-0.80
2013,12,08,12,57,-0.70
2013,12,08,12,58,-0.70
2013,12,08,12,59,-0.70
2013,12,08,13,00,-0.70
2013,12,08,13,01,-0.70
2013,12,08,13,02,-0.70
2013,12,08,13,03,-0.60
2013,12,08,13,04,-0.60
2013,12,08,13,05,-0.60
2013,12,08,13,06,-0.60
2013,12,08,13,07,-0.50
2013,12,08,13,08,-0.50
2013,12,08,13,09,-0.50
2013,12,08,13,10,-0.50
2013,12,08,13,11,-0.50
2013,12,08,13,12,-0.40
2013,12,08,13,13,-0.40
2013,12,08,13,14,-0.40
2013,12,08,13,15,-0.40
2013,12,08,13,16,-0.30
2013,12,08,13,17,-0.30
2013,12,08,13,18,-0.30
2013,12,08,13,19,-0.20
2013,12,08,13,20,-0.20
2013,12,08,13,21,-0.20
2013,12,08,13,22,-0.10
2013,12,08,13,23,-0.10
2013,12,08,13,24,-0.10
2013,12,08,13,25,0.00
2013,12,08,13,26,0.00
2013,12,08,13,27,-0.10
2013,12,08,13,28,-0.10
2013,12,08,13,29,-0.10
2013,12,08,13,30,-0.10
2013,12,08,13,31,-0.10
2013,12,08,13,32,-0.10
2013,12,08,13,33,0.00
2013,12,08,13,34,0.00
2013,12,08,13,35,0.00
2013,12,08,13,36,0.00
2013,12,08,13,37,0.00
2013,12,08,13,38,0.00
2013,12,08,13,39,0.10
2013,12,08,13,40,0.10
2013,12,08,13,41,0.10
2013,12,08,13,42,0.10
2013,12,08,13,43,0.10
2013,12,08,13,44,0.10
2013,12,08,13,45,0.20
2013,12,08,13,46,0.30
2013,12,08,13,47,0.30
2013,12,08,13,48,0.40
2013,12,08,13,49,0.50
2013,12,08,13,50,0.60
2013,12,08,13,51,0.70
2013,12,08,13,52,0.80
2013,12,08,13,53,0.80
2013,12,08,13,54,0.90
2013,12,08,13,55,1.00
2013,12,08,13,56,1.00
2013,12,08,13,57,1.10
2013,12,08,13,58,1.10
2013,12,08,13,59,1.10
2013,12,08,14,00,1.20
2013,12,08,14,01,1.20
2013,12,08,14,02,1.20
2013,12,08,14,03,1.30
2013,12,08,14,04,1.30
2013,12,08,14,05,1.30
2013,12,08,14,06,1.30
2013,12,08,14,07,1.30
2013,12,08,14,08,1.40
2013,12,08,14,09,1.40
2013,12,08,14,10,1.40
2013,12,08,14,11,1.40
2013,12,08,14,12,1.40
2013,12,08,14,13,1.40
2013,12,08,14,14,1.40
2013,12,08,14,15,1.40
2013,12,08,14,16,1.40
2013,12,08,14,17,1.30
2013,12,08,14,18,1.30
2013,12,08,14,19,1.30
2013,12,08,14,20,1.30
2013,12,08,14,21,1.30
2013,12,08,14,22,1.30
2013,12,08,14,23,1.30
2013,12,08,14,24,1.30
2013,12,08,14,25,1.30
2013,12,08,14,26,1.30
2013,12,08,14,27,1.30
2013,12,08,14,28,1.30
2013,12,08,14,29,1.30
2013,12,08,14,30,1.30
2013,12,08,14,31,1.30
2013,12,08,14,32,1.30
2013,12,08,14,33,1.30
2013,12,08,14,34,1.30
2013,12,08,14,35,1.30
2013,12,08,14,36,1.30
2013,12,08,14,37,1.30
2013,12,08,14,38,1.30
2013,12,08,14,39,1.40
2013,12,08,14,40,1.40
2013,12,08,14,41,1.40
2013,12,08,14,42,1.40
2013,12,08,14,43,1.30
2013,12,08,14,44,1.30
2013,12,08,14,45,1.20
2013,12,08,14,46,1.20
2013,12,08,14,47,1.20
2013,12,08,14,48,1.20
2013,12,08,14,49,1.20
2013,12,08,14,50,1.30
2013,12,08,14,51,1.30
2013,12,08,14,52,1.30
2013,12,08,14,53,1.30
2013,12,08,14,54,1.30
2013,12,08,14,55,1.30
2013,12,08,14,56,1.30
2013,12,08,14,57,1.30
2013,12,08,14,58,1.30
2013,12,08,14,59,1.30
2013,12,08,15,00,1.20
2013,12,08,15,01,1.20
2013,12,08,15,02,1.20
2013,12,08,15,03,1.20
2013,12,08,15,04,1.20
2013,12,08,15,05,1.20
2013,12,08,15,06,1.20
2013,12,08,15,07,1.20
2013,12,08,15,08,1.30
2013,12,08,15,09,1.30
2013,12,08,15,10,1.30
2013,12,08,15,11,1.40
2013,12,08,15,12,1.40
2013,12,08,15,13,1.40
2013,12,08,15,14,1.40
2013,12,08,15,15,1.40
2013,12,08,15,16,1.30
2013,12,08,15,17,1.30
2013,12,08,15,18,1.30
2013,12,08,15,19,1.30
2013,12,08,15,20,1.30
2013,12,08,15,21,1.30
2013,12,08,15,22,1.30
2013,12,08,15,23,1.30
2013,12,08,15,24,1.40
2013,12,08,15,25,1.40
2013,12,08,15,26,1.40
2013,12,08,15,27,1.40
2013,12,08,15,28,1.40
2013,12,08,15,29,1.50
2013,12,08,15,30,1.50
2013,12,08,15,31,1.60
2013,12,08,15,32,1.60
2013,12,08,15,33,1.60
2013,12,08,15,34,1.60
2013,12,08,15,35,1.60
2013,12,08,15,36,1.50
2013,12,08,15,37,1.50
2013,12,08,15,38,1.40
2013,12,08,15,39,1.40
2013,12,08,15,40,1.40
2013,12,08,15,41,1.30
2013,12,08,15,42,1.30
2013,12,08,15,43,1.30
2013,12,08,15,44,1.30
2013,12,08,15,45,1.20
2013,12,08,15,46,1.10
2013,12,08,15,47,1.10
2013,12,08,15,48,1.00
2013,12,08,15,49,1.00
2013,12,08,15,50,0.90
2013,12,08,15,51,0.80
2013,12,08,15,52,0.80
2013,12,08,15,53,0.80
2013,12,08,15,54,0.70
2013,12,08,15,55,0.70
2013,12,08,15,56,0.60
2013,12,08,15,57,0.60
2013,12,08,15,58,0.50
2013,12,08,15,59,0.50
2013,12,08,16,00,0.40
2013,12,08,16,01,0.40
2013,12,08,16,02,0.30
2013,12,08,16,03,0.30
2013,12,08,16,04,0.30
2013,12,08,16,05,0.30
2013,12,08,16,06,0.20
2013,12,08,16,07,0.20
2013,12,08,16,08,0.10
2013,12,08,16,09,0.10
2013,12,08,16,10,0.00
2013,12,08,16,11,0.00
2013,12,08,16,12,-0.10
2013,12,08,16,13,-0.10
2013,12,08,16,14,-0.10
2013,12,08,16,15,-0.20
2013,12,08,16,16,-0.20
2013,12,08,16,17,-0.30
2013,12,08,16,18,-0.30
2013,12,08,16,19,-0.30
2013,12,08,16,20,-0.40
2013,12,08,16,21,-0.40
2013,12,08,16,22,-0.40
2013,12,08,16,23,-0.50
2013,12,08,16,24,-0.50
2013,12,08,16,25,-0.60
2013,12,08,16,26,-0.60
2013,12,08,16,27,-0.70
2013,12,08,16,28,-0.70
2013,12,08,16,29,-0.70
2013,12,08,16,30,-0.80
2013,12,08,16,31,-0.80
2013,12,08,16,32,-0.80
2013,12,08,16,33,-0.90
2013,12,08,16,34,-0.90
2013,12,08,16,35,-0.90
2013,12,08,16,36,-1.00
2013,12,08,16,37,-1.00
2013,12,08,16,38,-1.10
2013,12,08,16,39,-1.10
2013,12,08,16,40,-1.10
2013,12,08,16,41,-1.20
2013,12,08,16,42,-1.20
2013,12,08,16,43,-1.20
2013,12,08,16,44,-1.30
2013,12,08,16,45,-1.30
2013,12,08,16,46,-1.30
2013,12,08,16,47,-1.30
2013,12,08,16,48,-1.40
2013,12,08,16,49,-1.40
2013,12,08,16,50,-1.40
2013,12,08,16,51,-1.50
2013,12,08,16,52,-1.50
2013,12,08,16,53,-1.60
2013,12,08,16,54,-1.60
2013,12,08,16,55,-1.60
2013,12,08,16,56,-1.70
2013,12,08,16,57,-1.70
2013,12,08,16,58,-1.70
2013,12,08,16,59,-1.70
2013,12,08,17,00,-1.80
2013,12,08,17,01,-1.80
2013,12,08,17,02,-1.80
2013,12,08,17,03,-1.80
2013,12,08,17,04,-1.80
2013,12,08,17,05,-1.90
2013,12,08,17,06,-1.90
2013,12,08,17,07,-1.90
2013,12,08,17,08,-1.90
2013,12,08,17,09,-1.90
2013,12,08,17,10,-1.90
2013,12,08,17,11,-2.00
2013,12,08,17,12,-2.00
2013,12,08,17,13,-2.00
2013,12,08,17,14,-2.10
2013,12,08,17,15,-2.10
2013,12,08,17,16,-2.10
2013,12,08,17,17,-2.20
2013,12,08,17,18,-2.20
2013,12,08,17,19,-2.20
2013,12,08,17,20,-2.20
2013,12,08,17,21,-2.30
2013,12,08,17,22,-2.30
2013,12,08,17,23,-2.30
2013,12,08,17,24,-2.30
2013,12,08,17,25,-2.30
2013,12,08,17,26,-2.30